Hourly Weather Roundup
Issued by NWS Central Illinois

Home | Current Version | Previous Version | Text Only | Print | Product List | Glossary On
Versions: 1 2 3 4 5 6 7 8 9 10 11 12 13 14 15 16 17 18 19 20 21 22 23 24 25 26 27 28 29 30 31 32 33 34 35 36 37 38 39 40 41 42 43 44 45 46 47 48 49 50
000
NZUS43 KILX 241110
HWRILX

Area Weather Roundup
National Weather Service Lincoln IL
500 AM CST FRI NOV 24 2017

NOTE:  "FAIR" indicates few or no clouds below 12,000 feet, with
       no sigificant weather and/or obstructions to visibility.


CITY           SKY/WX    TMP DP  RH WIND       PRES   REMARKS
Bloomington    PTCLDY    31  27  85 S10       29.84F WCI  22
Champaign      CLOUDY    31  27  85 S7        29.88S WCI  24
Danville       CLEAR     31  25  77 S5        29.86S WCI  27
Decatur        PTCLDY    34  28  79 S8        29.86F WCI  27
Effingham      CLOUDY    30  27  88 SE3       29.92S
Flora          CLOUDY    31  27  84 S5        29.93R WCI  26
Galesburg      CLOUDY    38  32  79 S5        29.79F WCI  34
Jacksonville   MOCLDY    40  30  67 S8        29.84R
Lacon          CLOUDY    35  29  78 S5        29.81F WCI  31
Lawrenceville  CLOUDY    31  25  78 S5        29.94S WCI  26
Litchfield     PTCLDY    33  28  81 S8        29.86F WCI  26
$$


CITY           SKY/WX    TMP DP  RH WIND       PRES   REMARKS
Lincoln        CLOUDY    32  29  90 S5        29.85F WCI  27
Macomb         CLOUDY    38  31  77 S6        29.82S WCI  33
Mattoon        CLEAR     34  27  75 S10       29.88F WCI  26
Mt Carmel AP   CLOUDY    32  25  74 CALM      29.93F
Olney-Noble AP CLOUDY    33  25  71 S3        29.93S
Paris AP       CLOUDY    31  27  84 S8        29.90F WCI  24
Peoria         CLEAR     34  29  82 S6        29.83F WCI  29
Pontiac        PTCLDY    32  30  94 S9        29.85S WCI  24
Rantoul        CLEAR     33  29  86 CALM      29.87F
Robinson       CLOUDY    30  24  79 CALM      29.95R
Springfield    PTCLDY    39  30  70 S8        29.85F WCI  33
Taylorville    PTCLDY    33  28  82 S7        29.86F WCI  27
$$

...REGIONAL REPORTS...


CITY           SKY/WX    TMP DP  RH WIND       PRES   REMARKS
Chicago O`Hare PTCLDY    36  27  69 S8        29.80S WCI  30
Kankakee       CLEAR     32  26  79 SW7       29.87S WCI  26
Moline         PTCLDY    42  31  64 SW6       29.74F
Mount Sterling PTCLDY    36  30  81 S6        29.81S WCI  31
Mount Vernon   CLOUDY    28  25  88 CALM      29.92S
Pittsfield     CLOUDY    42  32  68 S7        29.83F
Quincy         CLOUDY    40  32  73 S9        29.80F WCI  34
Rockford       CLOUDY    35  28  75 S6        29.78F WCI  30
$$


CITY           SKY/WX    TMP DP  RH WIND       PRES   REMARKS
Burlington     CLEAR     38  32  79 S8        29.76F WCI  32
Cedar Rapids   CLEAR     42  33  70 S16       29.66F WCI  34
Des Moines     CLEAR     50  36  58 S16       29.61F
Kirksville     CLEAR     46  35  65 S8        29.76F
Ottumwa        CLEAR     46  35  65 S13       29.69F
St Louis       MOCLDY    42  31  64 SW3       29.87F
$$


CITY           SKY/WX    TMP DP  RH WIND       PRES   REMARKS
Terre Haute    CLEAR     28  22  78 CALM      29.93R
Evansville     CLEAR     32  26  78 CALM      29.96F
Indianapolis   CLOUDY    31  24  75 S6        29.93S WCI  25
Lafayette      CLEAR     32  25  75 CALM      29.89F
Madison        CLOUDY    39  29  67 S8        29.67F WCI  33
Milwaukee      MOCLDY    41  29  62 SW17G26   29.71F WCI  32
$$






USA.gov is the U.S. government's official web portal to all federal, state and local government web resources and services.